Weather History for Pensacola, FL

Change the Weather History Date:

Wednesday, April 24, 2013

  Actual Average Record
Temperature  
Mean Temperature 69 °F 69 °F  
Max Temperature 77 °F 78 °F 89 °F (1962)
Min Temperature 61 °F 60 °F 45 °F (1884)
Degree Days  
Heating Degree Days 0 1  
Month to date heating degree days 29 48  
Since 1 July heating degree days 1167 1532  
Cooling Degree Days 4 5  
Month to date cooling degree days 75 70  
Year to date cooling degree days 130 117  
Growing Degree Days 19 (Base 50)    
Moisture  
Dew Point 64 °F    
Average Humidity 85    
Maximum Humidity 100    
Minimum Humidity 69    
Precipitation  
Precipitation 0.12 in 0.13 in 10.58 in (1937)
Month to date precipitation 4.41 3.53  
Year to date precipitation 20.23 19.03  
Sea Level Pressure  
Sea Level Pressure 30.11 in    
Wind  
Wind Speed 5 mph (SE)    
Max Wind Speed 18 mph    
Max Gust Speed 22 mph    
Visibility 5 miles    
Events Fog , Rain    
T = Trace of Precipitation, MM = Missing Value Source: NWS Daily Summary

Daily Weather History Graph

Daily Weather History Graph

Search for Another Location

Airport:

Trip Planner

Search our weather history database for the weather conditions in past years. The results will help you decide how hot, cold, wet, or windy it might be!

Date:

Astronomy

Apr. 24, 2013 Rise Set
Actual Time 6:11 AM CDT 7:22 PM CDT
Civil Twilight 5:46 AM CDT 7:47 PM CDT
Nautical Twilight 5:16 AM CDT 8:17 PM CDT
Astronomical Twilight 4:45 AM CDT 8:48 PM CDT
Moon 6:27 PM CDT (4/24) 5:10 AM CDT (4/24)
Length of Visible Light 14h 01m
Length of Day
13h 10m
Waxing Gibbous, 98% of the Moon is Illuminated
Apr 24
Waxing Gibbous
Apr 25
Full
May 2
Last Quarter
May 9
New
May 17
First Quarter

Hourly Weather History & Observations

Time (CDT) Temp. Dew Point Humidity Pressure Visibility Wind Dir Wind Speed Gust Speed Precip Events Conditions
12:53 AM 64.9 °F 62.1 °F 90% 30.07 in 10.0 mi SSE 5.8 mph - N/A   Clear
1:53 AM 66.0 °F 63.0 °F 90% 30.06 in 10.0 mi SSE 5.8 mph - N/A   Clear
2:53 AM 64.0 °F 62.1 °F 93% 30.05 in 10.0 mi South 4.6 mph - N/A   Clear
3:46 AM 64.4 °F 62.6 °F 94% 30.06 in 1.8 mi Calm Calm - N/A   Clear
3:53 AM 64.0 °F 62.1 °F 93% 30.06 in 1.2 mi Calm Calm - N/A   Clear
3:57 AM 64.4 °F 62.6 °F 94% 30.06 in 3.0 mi Calm Calm - N/A   Clear
4:43 AM 62.6 °F 60.8 °F 94% 30.06 in 1.8 mi Calm Calm - N/A   Clear
4:53 AM 62.6 °F 60.8 °F 94% 30.07 in 2.0 mi Calm Calm - N/A   Clear
5:01 AM 62.6 °F 62.6 °F 100% 30.07 in 4.0 mi Calm Calm - N/A   Clear
5:53 AM 61.0 °F 60.1 °F 97% 30.09 in 4.0 mi Calm Calm - N/A   Clear
6:36 AM 62.6 °F 60.8 °F 94% 30.09 in 1.0 mi ENE 3.5 mph - N/A   Partly Cloudy
6:39 AM 62.6 °F 60.8 °F 94% 30.09 in 0.5 mi ENE 3.5 mph - N/A Fog Fog
6:53 AM 63.0 °F 61.0 °F 93% 30.10 in 0.5 mi ENE 4.6 mph - N/A Fog Fog
7:00 AM 62.6 °F 60.8 °F 94% 30.09 in 0.2 mi ENE 4.6 mph - N/A Fog Fog
7:23 AM 64.4 °F 62.6 °F 94% 30.10 in 0.5 mi Calm Calm - N/A Fog Fog
7:49 AM 64.4 °F 64.4 °F 100% 30.10 in 2.0 mi East 3.5 mph - N/A   Mist
7:53 AM 66.0 °F 64.9 °F 96% 30.11 in 3.0 mi Calm Calm - N/A   Overcast
8:04 AM 66.2 °F 64.4 °F 94% 30.10 in 7.0 mi Calm Calm - N/A   Scattered Clouds
8:53 AM 71.1 °F 66.0 °F 84% 30.12 in 10.0 mi SE 6.9 mph - N/A   Clear
9:53 AM 73.9 °F 64.9 °F 73% 30.14 in 10.0 mi SSE 11.5 mph - N/A   Partly Cloudy
10:45 AM 75.2 °F 64.4 °F 69% 30.14 in 10.0 mi SE 10.4 mph - N/A   Mostly Cloudy
10:53 AM 77.0 °F 66.0 °F 69% 30.14 in 10.0 mi SSE 10.4 mph - N/A   Mostly Cloudy
11:53 AM 75.0 °F 66.9 °F 76% 30.12 in 10.0 mi SSE 13.8 mph - N/A   Mostly Cloudy
12:53 PM 73.9 °F 66.9 °F 79% 30.13 in 10.0 mi SSE 9.2 mph - N/A   Mostly Cloudy
1:00 PM 73.4 °F 66.2 °F 78% 30.13 in 10.0 mi South 9.2 mph - N/A   Mostly Cloudy
1:53 PM 73.0 °F 66.0 °F 79% 30.14 in 10.0 mi SSW 6.9 mph - N/A   Mostly Cloudy
2:53 PM 71.1 °F 66.9 °F 87% 30.07 in 10.0 mi SSE 11.5 mph - 0.00 in Rain Light Rain
3:53 PM 72.0 °F 68.0 °F 87% 30.08 in 7.0 mi North 5.8 mph - 0.06 in Rain Light Rain
4:53 PM 72.0 °F 66.9 °F 84% 30.13 in 10.0 mi NW 5.8 mph - 0.00 in   Overcast
5:53 PM 71.1 °F 66.9 °F 87% 30.11 in 9.0 mi SSW 3.5 mph - 0.05 in Rain Light Rain
6:53 PM 72.0 °F 66.9 °F 84% 30.09 in 10.0 mi Calm Calm - 0.01 in   Clear
7:09 PM 71.6 °F 66.2 °F 83% 30.08 in 10.0 mi Calm Calm - N/A   Partly Cloudy
7:53 PM 69.1 °F 66.9 °F 93% 30.10 in 8.0 mi Calm Calm - 0.00 in   Partly Cloudy
8:53 PM 69.1 °F 66.9 °F 93% 30.11 in 9.0 mi Calm Calm - N/A   Mostly Cloudy
9:53 PM 68.0 °F 66.0 °F 93% 30.14 in 5.0 mi Calm Calm - N/A   Clear
10:07 PM 66.2 °F 64.4 °F 94% 30.13 in 1.5 mi Calm Calm - N/A   Clear
10:53 PM 66.9 °F 64.9 °F 93% 30.15 in 1.5 mi Calm Calm - N/A   Clear
11:06 PM 66.2 °F 64.4 °F 94% 30.14 in 0.5 mi Calm Calm - N/A Fog Fog
11:30 PM 66.2 °F 64.4 °F 94% 30.14 in 0.2 mi Calm Calm - N/A Fog Fog
11:40 PM 66.2 °F 64.4 °F 94% 30.14 in 0.5 mi Calm Calm - N/A Fog Fog
11:44 PM 66.2 °F 64.4 °F 94% 30.14 in 1.0 mi Calm Calm - N/A   Mist
11:50 PM 66.2 °F 64.4 °F 94% 30.14 in 2.0 mi NNE 3.5 mph - N/A   Partly Cloudy
11:53 PM 66.0 °F 64.9 °F 96% 30.15 in 3.0 mi NNE 3.5 mph - N/A   Partly Cloudy